Showing default

BLACKJACK ACES-3, 56950

Orbit data source: Space-Track

BLACKJACK ACES-3, 56950 is a payload satellite owned by DARPA (US) in SSO that was launched on Mon, 12 Jun 2023 UTC via an FALCON 9 launch vehicle from the Air Force Western Test Range (AFWTR). Payload-class satellites include a variety of spacecraft equipped with specific instruments for various scientific and technological missions. These include communications satellites like Starlink; space stations such as the ISS; scientific satellites like the Hubble; Earth observation satellites from companies like Planet Labs, Umbra, and HawkEye 360; GPS; miniature CubeSats for education and research; and military/defense satellites.

Loading next visibility...
Identifier
56950, 2023-084U
Orbit
SSO
Country
Flag of USUS
Related business
Manufacturer
BLCAN/LMSS
Mission
Operational Defense Communications
Bus & Motor
X-SAT, Unknown motor
Mass
~200 kg wet, ~200 kg dry
Launch date (UTC)
2023-06-12 (2 years ago)
Launch vehicle
FALCON 9
Launch site
Air Force Western Test Range (AFWTR)
Object type
Payload
Rocket body
Debris
Shape & HBR
Box, 3.6 m
Radar Cross Section
0.875 m², Large (>1 m²)

Expand to show TLE details & history
Last TLE update: 19 hours ago

TLE from 19 hours ago
0 BLACKJACK ACES-3
1 56950U 23084U   25286.32201256  .00014731  00000-0  64535-3 0  9998
2 56950  97.5909  54.5423 0009584 120.2831 239.9355 15.22077258129661
Epoch: 2025-10-13T07:43Z
TLE epoch observation values (Epoch: 2025-10-13T07:43:41.885Z)
Latitude
0.00006°
Longitude
-83.50869°
Altitude
505.971 km
Speed
7.609 km/s
True Right ascension
03h 38m 10s
True Declination
0° 00' 00"
Sunlit
Object was in full shadow at epoch
Visualization orbit readout
Latitude
Unknown
Longitude
Unknown
Altitude
Unknown
Speed
Unknown
Apparent Right ascension
Unknown
Apparent Declination
Unknown
Sunlit
N/A
Visualization observer readout
Local Sidereal Time
21:35:07
Azimuth
Unknown
Elevation
Unknown
Doppler factor
Unknown
Orbital elements
Apogee altitude
503.136 km
Perigee altitude
489.958 km
Semi-major axis
6,874.684 km
Eccentricity
0.00096
Inclination
97.5909°
RAAN
54.5423°
Arg. of periapsis
120.2831°
True anomaly
239.84051°
Mean anomaly
239.9355°
Eccentric anomaly
239.888°
Mean motion
3.80771 °/min
Orbital period
94.54 mins
BSTAR
0.00064535
Loading maneuver chart data...
Computing Atmospheric mass density...

Documentation

Showing up to 5 results
|